AUA8PM LIRQ-LOWI

Flight info

Callsign AUA8PM
Flight time 0h 58m
Altitude 18000
Route OKMAP Q125 OMAKU T558 LUMAV/N0359F160 M726 BRENO BRENO3A
Aircraft DH8D/M-SDE2E3FGRY/H

Departure

Time 2026-05-06 16:15
Airport Florence Airport, Peretola (LIRQ)

Arrival

Time 2026-05-06 17:14
Airport Innsbruck Airport (LOWI)
Time Latitude Longitude Altitude Speed Heading
2026-05-06 15:52 43.80326 11.20083 137 ft 0 kts 129°
2026-05-06 16:06 43.80333 11.20071 137 ft 2 kts 129°
2026-05-06 16:06 43.80342 11.20055 137 ft 2 kts 129°
2026-05-06 16:06 43.80350 11.20042 137 ft 0 kts 129°
2026-05-06 16:06 43.80357 11.20028 137 ft 2 kts 108°
2026-05-06 16:07 43.80358 11.20008 137 ft 2 kts 81°
2026-05-06 16:07 43.80357 11.19999 137 ft 0 kts 73°
2026-05-06 16:07 43.80357 11.20000 137 ft 0 kts 73°
2026-05-06 16:08 43.80365 11.20020 137 ft 5 kts 44°
2026-05-06 16:08 43.80407 11.20037 137 ft 6 kts
2026-05-06 16:09 43.80447 11.20045 137 ft 5 kts
2026-05-06 16:09 43.80483 11.20045 137 ft 4 kts 339°
2026-05-06 16:09 43.80492 11.20036 137 ft 0 kts 319°
2026-05-06 16:11 43.80504 11.20018 137 ft 6 kts 314°
2026-05-06 16:12 43.80545 11.19988 136 ft 7 kts
2026-05-06 16:12 43.80620 11.20014 137 ft 14 kts 13°
2026-05-06 16:12 43.80725 11.20076 137 ft 18 kts 45°
2026-05-06 16:12 43.80821 11.20223 139 ft 22 kts 47°
2026-05-06 16:13 43.80929 11.20386 140 ft 22 kts 43°
2026-05-06 16:13 43.81032 11.20546 142 ft 23 kts 50°
2026-05-06 16:13 43.81148 11.20729 144 ft 27 kts 48°
2026-05-06 16:13 43.81277 11.20927 146 ft 28 kts 48°
2026-05-06 16:14 43.81413 11.21138 149 ft 27 kts 48°
2026-05-06 16:14 43.81478 11.21278 150 ft 16 kts 67°
2026-05-06 16:14 43.81511 11.21292 150 ft 10 kts 237°
2026-05-06 16:14 43.81393 11.21107 149 ft 68 kts 228°
2026-05-06 16:15 43.80868 11.20301 144 ft 146 kts 232°
2026-05-06 16:15 43.80164 11.19175 638 ft 161 kts 232°
2026-05-06 16:15 43.79652 11.17832 1337 ft 168 kts 265°
2026-05-06 16:15 43.79900 11.16196 1900 ft 183 kts 286°
2026-05-06 16:16 43.80232 11.14491 2641 ft 188 kts 279°
2026-05-06 16:16 43.80481 11.12726 3452 ft 189 kts 276°
2026-05-06 16:16 43.80670 11.10957 4285 ft 187 kts 274°
2026-05-06 16:16 43.80814 11.09215 5094 ft 185 kts 271°
2026-05-06 16:17 43.80929 11.07484 5903 ft 182 kts 269°
2026-05-06 16:17 43.81021 11.05774 6701 ft 179 kts 268°
2026-05-06 16:17 43.81095 11.04071 7466 ft 178 kts 267°
2026-05-06 16:17 43.81256 11.02404 8173 ft 183 kts 283°
2026-05-06 16:18 43.82023 11.00962 8841 ft 198 kts 315°
2026-05-06 16:18 43.83311 11.00205 9464 ft 211 kts 346°
2026-05-06 16:18 43.84779 11.00394 10071 ft 220 kts 19°
2026-05-06 16:18 43.85932 11.01746 10617 ft 218 kts 64°
2026-05-06 16:19 43.86594 11.03616 11073 ft 227 kts 69°
2026-05-06 16:19 43.87300 11.05697 11383 ft 245 kts 68°
2026-05-06 16:19 43.88051 11.07870 11806 ft 257 kts 68°
2026-05-06 16:19 43.88842 11.10130 12288 ft 264 kts 68°
2026-05-06 16:20 43.89651 11.12428 12809 ft 269 kts 67°
2026-05-06 16:20 43.90477 11.14770 13344 ft 272 kts 67°
2026-05-06 16:20 43.91303 11.17106 13882 ft 274 kts 66°
2026-05-06 16:20 43.92142 11.19480 14430 ft 275 kts 66°
2026-05-06 16:21 43.92987 11.21867 14964 ft 276 kts 66°
2026-05-06 16:21 43.93822 11.24227 15489 ft 277 kts 66°
2026-05-06 16:21 43.94907 11.26422 15942 ft 278 kts 39°
2026-05-06 16:21 43.96594 11.27674 16406 ft 274 kts 16°
2026-05-06 16:22 43.98384 11.28547 16886 ft 274 kts 15°
2026-05-06 16:22 44.00182 11.29415 17361 ft 274 kts 14°
2026-05-06 16:22 44.01983 11.30282 17731 ft 280 kts 14°
2026-05-06 16:22 44.03876 11.31191 17867 ft 295 kts 14°
2026-05-06 16:23 44.05854 11.32327 17915 ft 316 kts 22°
2026-05-06 16:23 44.07837 11.33736 17930 ft 332 kts 24°
2026-05-06 16:23 44.09932 11.35252 17931 ft 345 kts 24°
2026-05-06 16:23 44.12114 11.36834 17922 ft 354 kts 25°
2026-05-06 16:24 44.14352 11.38413 17913 ft 361 kts 21°
2026-05-06 16:24 44.16738 11.39479 17922 ft 363 kts 11°
2026-05-06 16:24 44.19233 11.40324 17916 ft 368 kts
2026-05-06 16:24 44.21730 11.41164 17909 ft 371 kts
2026-05-06 16:25 44.24238 11.42009 17903 ft 374 kts
2026-05-06 16:25 44.26760 11.42862 17894 ft 376 kts 10°
2026-05-06 16:25 44.29302 11.43726 17892 ft 377 kts 10°
2026-05-06 16:25 44.31843 11.44591 17892 ft 378 kts 10°
2026-05-06 16:26 44.34404 11.45466 17887 ft 379 kts 10°
2026-05-06 16:26 44.36976 11.46346 17879 ft 380 kts 10°
2026-05-06 16:26 44.39537 11.47223 17881 ft 380 kts 10°
2026-05-06 16:26 44.42100 11.48103 17873 ft 381 kts 10°
2026-05-06 16:27 44.44677 11.48993 17877 ft 380 kts 10°
2026-05-06 16:27 44.47263 11.49883 17875 ft 380 kts 10°
2026-05-06 16:27 44.49833 11.50766 17872 ft 381 kts 10°
2026-05-06 16:27 44.52411 11.51654 17862 ft 381 kts 10°
2026-05-06 16:28 44.54982 11.52541 17864 ft 382 kts 11°
2026-05-06 16:28 44.57541 11.53424 17860 ft 382 kts 10°
2026-05-06 16:28 44.60143 11.54323 17860 ft 382 kts 11°
2026-05-06 16:28 44.62704 11.55210 17862 ft 382 kts 10°
2026-05-06 16:29 44.65271 11.56098 17871 ft 382 kts 10°
2026-05-06 16:29 44.67879 11.57002 17869 ft 383 kts 10°
2026-05-06 16:29 44.70470 11.57901 17862 ft 383 kts 10°
2026-05-06 16:29 44.73053 11.58799 17858 ft 384 kts 10°
2026-05-06 16:30 44.75621 11.59691 17865 ft 384 kts 10°
2026-05-06 16:30 44.77374 11.60301 17860 ft 384 kts 10°
2026-05-06 16:30 44.80854 11.61442 17844 ft 382 kts
2026-05-06 16:30 44.83470 11.61409 17887 ft 373 kts 348°
2026-05-06 16:31 44.86022 11.60972 17857 ft 373 kts 348°
2026-05-06 16:31 44.88621 11.60514 17845 ft 374 kts 348°
2026-05-06 16:31 44.91196 11.60056 17846 ft 374 kts 348°
2026-05-06 16:31 44.93781 11.59598 17853 ft 375 kts 348°
2026-05-06 16:32 44.96385 11.59139 17850 ft 375 kts 348°
2026-05-06 16:32 44.98957 11.58686 17843 ft 375 kts 348°
2026-05-06 16:32 45.01582 11.58225 17847 ft 376 kts 348°
2026-05-06 16:32 45.04173 11.57771 17839 ft 376 kts 348°
2026-05-06 16:33 45.06754 11.57318 17839 ft 376 kts 348°
2026-05-06 16:33 45.09360 11.56861 17839 ft 377 kts 348°
2026-05-06 16:33 45.11991 11.56399 17831 ft 376 kts 348°
2026-05-06 16:34 45.17184 11.55488 17841 ft 376 kts 348°
2026-05-06 16:34 45.19793 11.55030 17847 ft 376 kts 348°
2026-05-06 16:34 45.22380 11.54575 17845 ft 376 kts 348°
2026-05-06 16:34 45.25003 11.54114 17841 ft 376 kts 348°
2026-05-06 16:35 45.27578 11.53661 17848 ft 376 kts 348°
2026-05-06 16:35 45.30190 11.53201 17850 ft 376 kts 348°
2026-05-06 16:35 45.32790 11.52742 17852 ft 377 kts 348°
2026-05-06 16:35 45.35370 11.52286 17854 ft 376 kts 348°
2026-05-06 16:36 45.37967 11.51827 17856 ft 377 kts 348°
2026-05-06 16:36 45.40597 11.51362 17859 ft 377 kts 348°
2026-05-06 16:36 45.43174 11.50906 17856 ft 377 kts 348°
2026-05-06 16:36 45.45774 11.50447 17858 ft 377 kts 348°
2026-05-06 16:37 45.48387 11.49986 17857 ft 377 kts 348°
2026-05-06 16:37 45.51026 11.49519 17858 ft 377 kts 348°
2026-05-06 16:37 45.53604 11.49063 17862 ft 377 kts 348°
2026-05-06 16:37 45.56219 11.48600 17862 ft 377 kts 348°
2026-05-06 16:38 45.58842 11.48135 17860 ft 377 kts 348°
2026-05-06 16:38 45.61425 11.47677 17865 ft 377 kts 348°
2026-05-06 16:38 45.64030 11.47231 17865 ft 378 kts 349°
2026-05-06 16:38 45.66668 11.46775 17871 ft 378 kts 348°
2026-05-06 16:39 45.69257 11.46305 17868 ft 377 kts 348°
2026-05-06 16:39 45.71878 11.45829 17871 ft 377 kts 348°
2026-05-06 16:39 45.74461 11.45360 17874 ft 378 kts 349°
2026-05-06 16:39 45.77092 11.44885 17880 ft 377 kts 349°
2026-05-06 16:40 45.79681 11.44417 17887 ft 377 kts 349°
2026-05-06 16:40 45.82303 11.43944 17890 ft 377 kts 349°
2026-05-06 16:40 45.84906 11.43474 17895 ft 378 kts 349°
2026-05-06 16:40 45.87527 11.43001 17891 ft 378 kts 349°
2026-05-06 16:41 45.90108 11.42535 17890 ft 378 kts 349°
2026-05-06 16:41 45.92735 11.42060 17889 ft 378 kts 349°
2026-05-06 16:41 45.95328 11.41592 17885 ft 378 kts 349°
2026-05-06 16:41 45.97929 11.41121 17886 ft 378 kts 349°
2026-05-06 16:42 46.00554 11.40658 17888 ft 378 kts 349°
2026-05-06 16:42 46.03167 11.40192 17885 ft 378 kts 349°
2026-05-06 16:42 46.05762 11.39726 17894 ft 378 kts 349°
2026-05-06 16:42 46.08370 11.39258 17885 ft 377 kts 349°
2026-05-06 16:43 46.10951 11.38793 17880 ft 376 kts 349°
2026-05-06 16:43 46.13578 11.38319 17898 ft 375 kts 349°
2026-05-06 16:43 46.16185 11.37848 17894 ft 375 kts 349°
2026-05-06 16:43 46.18769 11.37380 17889 ft 374 kts 349°
2026-05-06 16:44 46.21361 11.36910 17903 ft 374 kts 349°
2026-05-06 16:44 46.23952 11.36439 17899 ft 374 kts 349°
2026-05-06 16:44 46.26541 11.35968 17884 ft 374 kts 349°
2026-05-06 16:44 46.29102 11.35502 17896 ft 374 kts 349°
2026-05-06 16:45 46.31717 11.35024 17896 ft 374 kts 349°
2026-05-06 16:45 46.34304 11.34552 17888 ft 374 kts 349°
2026-05-06 16:45 46.36874 11.34082 17887 ft 374 kts 349°
2026-05-06 16:45 46.39458 11.33609 17885 ft 375 kts 349°
2026-05-06 16:46 46.42099 11.33126 17877 ft 376 kts 349°
2026-05-06 16:46 46.44719 11.32645 17875 ft 376 kts 349°
2026-05-06 16:46 46.47356 11.32387 17867 ft 379 kts 358°
2026-05-06 16:46 46.49987 11.32622 17862 ft 380 kts
2026-05-06 16:47 46.52624 11.32910 17866 ft 380 kts
2026-05-06 16:47 46.55247 11.33196 17880 ft 380 kts
2026-05-06 16:47 46.57901 11.33483 17891 ft 381 kts
2026-05-06 16:47 46.60599 11.33772 17887 ft 381 kts
2026-05-06 16:48 46.63255 11.34054 17921 ft 381 kts
2026-05-06 16:48 46.65909 11.34333 17931 ft 382 kts
2026-05-06 16:48 46.68543 11.34609 17936 ft 383 kts
2026-05-06 16:48 46.71198 11.34886 17937 ft 384 kts
2026-05-06 16:49 46.73866 11.35165 17786 ft 388 kts
2026-05-06 16:49 46.76591 11.35450 17559 ft 393 kts
2026-05-06 16:49 46.79323 11.35737 17275 ft 393 kts
2026-05-06 16:49 46.82015 11.36028 16893 ft 384 kts
2026-05-06 16:50 46.84689 11.36319 16514 ft 377 kts
2026-05-06 16:50 46.87288 11.36602 16130 ft 372 kts
2026-05-06 16:50 46.89844 11.36880 15755 ft 368 kts
2026-05-06 16:50 46.92401 11.37159 15377 ft 364 kts
2026-05-06 16:51 46.94925 11.37477 14985 ft 361 kts
2026-05-06 16:51 46.97263 11.38715 14591 ft 358 kts 33°
2026-05-06 16:51 46.98966 11.41331 14291 ft 350 kts 58°
2026-05-06 16:51 47.00162 11.44361 14046 ft 346 kts 63°
2026-05-06 16:52 47.01313 11.47442 13788 ft 344 kts 63°
2026-05-06 16:52 47.02449 11.50539 13516 ft 342 kts 64°
2026-05-06 16:52 47.03551 11.53569 13294 ft 337 kts 64°
2026-05-06 16:52 47.04639 11.56569 13048 ft 328 kts 64°
2026-05-06 16:53 47.05692 11.59486 12794 ft 322 kts 64°
2026-05-06 16:53 47.06731 11.62381 12565 ft 318 kts 64°
2026-05-06 16:53 47.07723 11.65164 12346 ft 314 kts 65°
2026-05-06 16:53 47.08759 11.68072 12177 ft 310 kts 65°
2026-05-06 16:54 47.09761 11.70907 12175 ft 311 kts 65°
2026-05-06 16:54 47.10734 11.73658 12171 ft 311 kts 65°
2026-05-06 16:54 47.11898 11.76380 12039 ft 318 kts 52°
2026-05-06 16:54 47.13467 11.78759 11819 ft 323 kts 46°
2026-05-06 16:55 47.15094 11.81108 11566 ft 323 kts 46°
2026-05-06 16:55 47.16649 11.83407 11315 ft 316 kts 47°
2026-05-06 16:55 47.18190 11.85697 11063 ft 310 kts 47°
2026-05-06 16:55 47.19708 11.87958 10808 ft 305 kts 47°
2026-05-06 16:56 47.21190 11.90154 10557 ft 302 kts 47°
2026-05-06 16:56 47.22766 11.92178 10289 ft 300 kts 34°
2026-05-06 16:56 47.24705 11.93253 10037 ft 298 kts 11°
2026-05-06 16:56 47.26778 11.93213 9777 ft 296 kts 348°
2026-05-06 16:57 47.28639 11.92061 9638 ft 287 kts 328°
2026-05-06 16:57 47.30268 11.90357 9595 ft 286 kts 321°
2026-05-06 16:57 47.31854 11.88583 9584 ft 285 kts 321°
2026-05-06 16:57 47.33194 11.86470 9567 ft 279 kts 296°
2026-05-06 16:58 47.33567 11.83739 9584 ft 270 kts 263°
2026-05-06 16:58 47.33099 11.81097 9604 ft 266 kts 248°
2026-05-06 16:58 47.32475 11.78459 9382 ft 272 kts 250°
2026-05-06 16:58 47.31967 11.75797 8861 ft 261 kts 254°
2026-05-06 16:59 47.31580 11.73306 8262 ft 242 kts 255°
2026-05-06 16:59 47.31231 11.70937 7721 ft 229 kts 256°
2026-05-06 16:59 47.30909 11.68700 7442 ft 218 kts 256°
2026-05-06 16:59 47.30600 11.66546 7099 ft 214 kts 256°
2026-05-06 17:00 47.30292 11.64419 6725 ft 212 kts 255°
2026-05-06 17:00 47.29984 11.62292 6360 ft 212 kts 256°
2026-05-06 17:00 47.29679 11.60186 6008 ft 210 kts 255°
2026-05-06 17:00 47.29374 11.58082 5641 ft 209 kts 255°
2026-05-06 17:01 47.29074 11.56011 5298 ft 208 kts 255°
2026-05-06 17:01 47.28773 11.53934 4951 ft 207 kts 255°
2026-05-06 17:01 47.28475 11.51879 4616 ft 206 kts 256°
2026-05-06 17:01 47.28175 11.49803 4350 ft 203 kts 255°
2026-05-06 17:02 47.27881 11.47760 4032 ft 202 kts 255°
2026-05-06 17:02 47.27591 11.45754 3880 ft 193 kts 255°
2026-05-06 17:02 47.27140 11.43949 3841 ft 181 kts 236°
2026-05-06 17:02 47.26464 11.42376 3810 ft 182 kts 235°
2026-05-06 17:03 47.25801 11.40763 3783 ft 178 kts 235°
2026-05-06 17:03 47.25162 11.39234 3768 ft 167 kts 235°
2026-05-06 17:03 47.24580 11.37843 3745 ft 149 kts 235°
2026-05-06 17:03 47.24059 11.36579 3753 ft 142 kts 234°
2026-05-06 17:04 47.23600 11.35311 3737 ft 143 kts 251°
2026-05-06 17:04 47.23440 11.33899 3701 ft 142 kts 262°
2026-05-06 17:04 47.23382 11.32402 3673 ft 143 kts 262°
2026-05-06 17:04 47.23272 11.30978 3656 ft 143 kts 259°
2026-05-06 17:05 47.23121 11.29545 3662 ft 141 kts 256°
2026-05-06 17:05 47.22957 11.28108 3645 ft 142 kts 256°
2026-05-06 17:05 47.22990 11.26643 3588 ft 150 kts 292°
2026-05-06 17:05 47.23819 11.25726 3308 ft 163 kts 356°
2026-05-06 17:06 47.24850 11.26335 3030 ft 157 kts 49°
2026-05-06 17:06 47.25359 11.27673 2827 ft 143 kts 83°
2026-05-06 17:06 47.25470 11.29049 2630 ft 129 kts 90°
2026-05-06 17:06 47.25581 11.30346 2392 ft 124 kts 85°
2026-05-06 17:07 47.25718 11.31596 2181 ft 125 kts 89°
2026-05-06 17:07 47.25875 11.33065 2384 ft 149 kts 86°
2026-05-06 17:07 47.26028 11.34652 2958 ft 168 kts 85°
2026-05-06 17:07 47.26252 11.36250 3979 ft 159 kts 78°
2026-05-06 17:08 47.26601 11.37760 4406 ft 150 kts 71°
2026-05-06 17:08 47.27104 11.39029 4416 ft 137 kts 62°
2026-05-06 17:08 47.27490 11.40246 4254 ft 132 kts 101°
2026-05-06 17:08 47.26972 11.41217 4119 ft 124 kts 163°
2026-05-06 17:09 47.26114 11.40978 3980 ft 134 kts 214°
2026-05-06 17:09 47.25481 11.39934 3901 ft 137 kts 233°
2026-05-06 17:09 47.24985 11.38725 3848 ft 135 kts 232°
2026-05-06 17:09 47.24480 11.37580 3826 ft 133 kts 233°
2026-05-06 17:10 47.24010 11.36401 3828 ft 133 kts 236°
2026-05-06 17:10 47.23595 11.35201 3833 ft 134 kts 246°
2026-05-06 17:10 47.23488 11.33805 3812 ft 138 kts 265°
2026-05-06 17:10 47.23425 11.32394 3766 ft 139 kts 257°
2026-05-06 17:11 47.23245 11.30953 3754 ft 143 kts 253°
2026-05-06 17:11 47.23040 11.29533 3723 ft 142 kts 255°
2026-05-06 17:11 47.22863 11.28107 3688 ft 140 kts 261°
2026-05-06 17:11 47.22880 11.26653 3666 ft 144 kts 282°
2026-05-06 17:12 47.23536 11.25516 3443 ft 153 kts 341°
2026-05-06 17:12 47.24572 11.25606 3159 ft 155 kts 30°
2026-05-06 17:12 47.25312 11.26662 2946 ft 142 kts 69°
2026-05-06 17:12 47.25520 11.28029 2787 ft 132 kts 90°
2026-05-06 17:13 47.25544 11.29420 2533 ft 141 kts 93°
2026-05-06 17:13 47.25640 11.30836 2325 ft 135 kts 87°
2026-05-06 17:13 47.25785 11.32192 2123 ft 130 kts 85°
2026-05-06 17:13 47.25925 11.33519 1935 ft 126 kts 83°
2026-05-06 17:14 47.26038 11.34574 1922 ft 71 kts 81°
2026-05-06 17:14 47.26096 11.35095 1919 ft 34 kts 80°
2026-05-06 17:14 47.26070 11.35256 1919 ft 13 kts 169°
2026-05-06 17:14 47.25995 11.35275 1919 ft 8 kts 170°
2026-05-06 17:15 47.25945 11.35286 1919 ft 8 kts 171°
2026-05-06 17:15 47.25896 11.35233 1919 ft 11 kts 260°
2026-05-06 17:15 47.25883 11.35120 1919 ft 8 kts 251°
2026-05-06 17:15 47.25853 11.35113 1919 ft 3 kts 169°
2026-05-06 17:16 47.25833 11.35118 1919 ft 0 kts 171°